Location: Camaret
(48.2753°N, 4.5961°W)
Time: 00:00:25
(UTC+00:00)

Cosmos 1553 Rocket - Pass Details

Date: 29 October 2020
Orbit: 940 x 1009 km, 82.9° (Epoch: 26 November)

Event Time Altitude Azimuth Distance (km) Brightness Sun altitude
Rises 17:41:45 0° 161° (SSE) 3,710 7.0 -6.9°
Reaches altitude 10° 17:44:26 10° 154° (SSE) 2,757 6.2 -7.4°
Maximum altitude 17:50:13 39° 88° (E) 1,445 4.5 -8.3°
Drops below altitude 10° 17:55:56 10° 22° (NNE) 2,733 6.0 -9.2°
Sets 17:58:35 0° 15° (NNE) 3,674 6.8 -9.7°
